Manistique, MI

8:02 PM EDT on May 29, 2017 (GMT -0400)
Schoolcraft County

Weather History for KISQ - September, 2013

Change the Weather History Date:

Wednesday, September 18, 2013

  Actual Average Record
Temperature  
Mean Temperature 60 °F -  
Max Temperature 63 °F 66 °F 80 °F (1967)
Min Temperature 56 °F 48 °F 32 °F (1969)
Degree Days  
Heating Degree Days 6    
Growing Degree Days 10 (Base 50)    
Moisture  
Dew Point 58 °F    
Average Humidity 91    
Maximum Humidity 98    
Minimum Humidity 76    
Precipitation  
Precipitation 0.07 in - - ()
Sea Level Pressure  
Sea Level Pressure 30.01 in    
Wind  
Wind Speed 7 mph (South)    
Max Wind Speed 10 mph    
Max Gust Speed 16 mph    
Visibility 9 miles    
Events Rain    
Averages and records for this station are not official NWS values.
T = Trace of Precipitation, MM = Missing Value Source: NWS Daily Summary

Daily Weather History Graph

Daily Weather History Graph

Search for Another Location

Airport or City:

Trip Planner

Search our weather history database for the weather conditions in past years. The results will help you decide how hot, cold, wet, or windy it might be!

Date:

Astronomy

Sep. 18, 2013 Rise Set
Actual Time 7:26 AM EDT 7:49 PM EDT
Civil Twilight 6:56 AM EDT 8:19 PM EDT
Nautical Twilight 6:21 AM EDT 8:54 PM EDT
Astronomical Twilight 5:45 AM EDT 9:31 PM EDT
Moon 7:11 PM EDT (9/18) 6:27 AM EDT (9/18)
Length of Visible Light 13h 22m
Length of Day
12h 22m
Waxing Gibbous, 99% of the Moon is Illuminated
Sep 18
Waxing Gibbous
Sep 19
Full
Sep 26
Last Quarter
Oct 4
New
Oct 11
First Quarter

Hourly Weather History & Observations

Time (EDT) Temp. Dew Point Humidity Pressure Visibility Wind Dir Wind Speed Gust Speed Precip Events Conditions
12:16 AM 56.8 °F 51.8 °F 83% 30.14 in 10.0 mi South 9.2 mph - N/A   Clear
12:35 AM 57.2 °F 52.2 °F 83% 30.14 in 10.0 mi South 6.9 mph - N/A   Clear
12:55 AM 57.2 °F 52.3 °F 84% 30.13 in 10.0 mi South 8.1 mph - N/A   Clear
1:16 AM 57.4 °F 52.7 °F 84% 30.12 in 10.0 mi South 9.2 mph - N/A   Clear
1:36 AM 57.6 °F 52.3 °F 83% 30.11 in 10.0 mi South 6.9 mph - N/A   Clear
1:55 AM 57.9 °F 52.2 °F 81% 30.11 in 10.0 mi South 9.2 mph - N/A   Clear
2:16 AM 57.6 °F 51.6 °F 81% 30.11 in 10.0 mi South 8.1 mph - N/A   Clear
2:36 AM 57.9 °F 50.9 °F 77% 30.11 in 10.0 mi South 9.2 mph - N/A   Clear
2:55 AM 57.6 °F 51.3 °F 79% 30.10 in 10.0 mi SSW 9.2 mph - N/A   Clear
3:16 AM 58.1 °F 50.9 °F 77% 30.10 in 10.0 mi SSW 8.1 mph - N/A   Clear
3:35 AM 58.6 °F 51.3 °F 76% 30.09 in 10.0 mi South 8.1 mph - N/A   Clear
3:55 AM 59.0 °F 52.2 °F 78% 30.08 in 10.0 mi South 8.1 mph - N/A   Clear
4:16 AM 58.8 °F 52.7 °F 80% 30.08 in 10.0 mi SSW 6.9 mph - N/A   Clear
4:35 AM 58.6 °F 53.1 °F 82% 30.08 in 10.0 mi South 6.9 mph - N/A   Clear
4:55 AM 58.8 °F 53.8 °F 83% 30.07 in 10.0 mi SSW 4.6 mph - N/A   Clear
5:16 AM 59.0 °F 54.5 °F 85% 30.07 in 10.0 mi South 4.6 mph - N/A   Clear
5:35 AM 58.6 °F 54.9 °F 87% 30.07 in 10.0 mi South 4.6 mph - N/A   Clear
5:56 AM 58.6 °F 55.4 °F 89% 30.07 in 10.0 mi South 4.6 mph - N/A   Clear
6:16 AM 59.2 °F 56.3 °F 90% 30.06 in 10.0 mi South 6.9 mph - N/A   Scattered Clouds
6:35 AM 59.9 °F 56.3 °F 88% 30.06 in 10.0 mi South 6.9 mph - N/A   Mostly Cloudy
6:56 AM 59.9 °F 56.3 °F 88% 30.06 in 10.0 mi South 6.9 mph - N/A   Overcast
7:15 AM 60.3 °F 56.3 °F 87% 30.06 in 10.0 mi SSW 8.1 mph - N/A   Overcast
7:35 AM 59.7 °F 57.2 °F 91% 30.06 in 7.0 mi South 6.9 mph - N/A Rain Light Rain
7:56 AM 59.9 °F 57.4 °F 91% 30.06 in 10.0 mi South 6.9 mph - N/A   Overcast
8:15 AM 59.9 °F 57.4 °F 91% 30.06 in 10.0 mi South 8.1 mph - N/A   Overcast
8:36 AM 59.4 °F 57.9 °F 95% 30.06 in 4.0 mi South 8.1 mph - N/A Rain Heavy Rain
8:55 AM 59.2 °F 58.1 °F 96% 30.05 in 7.0 mi South 9.2 mph - 0.01 in Rain Rain
9:16 AM 59.0 °F 58.3 °F 97% 30.05 in 2.5 mi South 8.1 mph - 0.02 in Rain Rain
9:36 AM 59.0 °F 58.5 °F 98% 30.05 in 4.0 mi South 10.4 mph 16.1 mph 0.02 in Rain Light Rain
9:55 AM 59.0 °F 58.1 °F 97% 30.04 in 7.0 mi South 10.4 mph - 0.02 in   Light Drizzle
10:16 AM 59.0 °F 58.1 °F 97% 30.04 in 10.0 mi SSE 9.2 mph - N/A   Overcast
10:36 AM 59.5 °F 59.0 °F 98% 30.04 in 10.0 mi SSE 9.2 mph - N/A   Overcast
10:56 AM 59.9 °F 59.0 °F 97% 30.04 in 10.0 mi South 8.1 mph - N/A   Overcast
11:15 AM 59.9 °F 59.0 °F 97% 30.04 in 7.0 mi South 8.1 mph - 0.01 in Rain Rain
11:35 AM 59.9 °F 58.8 °F 96% 30.04 in 4.0 mi South 9.2 mph - 0.01 in Rain Heavy Rain
11:56 AM 59.9 °F 58.1 °F 94% 30.03 in 10.0 mi South 10.4 mph - 0.02 in   Drizzle
12:15 PM 60.3 °F 58.5 °F 94% 30.03 in 7.0 mi South 10.4 mph - N/A Rain Rain
12:36 PM 60.1 °F 58.6 °F 95% 30.02 in 7.0 mi South 8.1 mph - N/A Rain Rain
12:56 PM 60.1 °F 58.8 °F 96% 30.01 in 7.0 mi South 9.2 mph - 0.02 in Rain Light Rain
1:15 PM 60.6 °F 59.2 °F 95% 30.01 in 10.0 mi South 9.2 mph - N/A   Overcast
1:36 PM 60.3 °F 58.5 °F 94% 30.00 in 10.0 mi South 8.1 mph - N/A   Overcast
1:55 PM 60.3 °F 58.3 °F 93% 29.99 in 10.0 mi South 6.9 mph - N/A   Overcast
2:16 PM 60.6 °F 58.8 °F 94% 29.99 in 10.0 mi South 8.1 mph - N/A   Overcast
2:35 PM 60.8 °F 59.0 °F 94% 29.99 in 10.0 mi South 8.1 mph - N/A   Overcast
2:56 PM 61.2 °F 59.4 °F 94% 29.97 in 10.0 mi South 6.9 mph - N/A   Overcast
3:16 PM 61.2 °F 59.7 °F 95% 29.97 in 10.0 mi SSE 6.9 mph - N/A Rain Light Rain
3:35 PM 61.0 °F 59.7 °F 96% 29.97 in 10.0 mi South 6.9 mph - N/A Rain Rain
3:56 PM 61.0 °F 59.4 °F 94% 29.95 in 10.0 mi South 8.1 mph - N/A Rain Light Rain
4:15 PM 61.2 °F 59.4 °F 94% 29.95 in 10.0 mi South 8.1 mph - N/A   Overcast
4:35 PM 61.3 °F 59.5 °F 94% 29.95 in 10.0 mi South 8.1 mph - N/A   Overcast
4:56 PM 61.7 °F 59.7 °F 93% 29.94 in 10.0 mi South 8.1 mph - N/A   Overcast
5:15 PM 62.1 °F 60.1 °F 93% 29.94 in 10.0 mi South 6.9 mph - N/A   Overcast
5:36 PM 62.6 °F 60.3 °F 92% 29.94 in 10.0 mi South 6.9 mph - N/A   Overcast
5:56 PM 62.2 °F 60.4 °F 94% 29.93 in 10.0 mi South 6.9 mph - N/A   Overcast
6:15 PM 62.6 °F 60.8 °F 94% 29.93 in 10.0 mi South 4.6 mph - N/A   Overcast
6:36 PM 62.2 °F 60.3 °F 93% 29.93 in 10.0 mi South 3.5 mph - N/A   Overcast
6:55 PM 62.6 °F 60.4 °F 93% 29.93 in 10.0 mi SSE 4.6 mph - N/A   Overcast
7:15 PM 62.6 °F 60.4 °F 93% 29.92 in 10.0 mi South 5.8 mph - N/A   Overcast
7:36 PM 62.6 °F 60.4 °F 93% 29.92 in 10.0 mi SSE 4.6 mph - N/A   Overcast
7:55 PM 62.6 °F 60.4 °F 93% 29.92 in 10.0 mi South 4.6 mph - N/A   Overcast
8:16 PM 62.6 °F 60.4 °F 93% 29.92 in 10.0 mi SSE 4.6 mph - N/A   Overcast
8:36 PM 62.6 °F 60.4 °F 93% 29.93 in 10.0 mi SSE 3.5 mph - N/A   Overcast
8:55 PM 62.6 °F 60.8 °F 94% 29.93 in 10.0 mi SSE 4.6 mph - N/A   Overcast
9:16 PM 62.6 °F 60.8 °F 94% 29.93 in 7.0 mi SSE 3.5 mph - N/A   Overcast
9:35 PM 63.1 °F 60.8 °F 92% 29.93 in 10.0 mi SSE 4.6 mph - N/A   Overcast
9:55 PM 63.7 °F 61.0 °F 91% 29.92 in 10.0 mi SSE 5.8 mph - N/A   Overcast
10:16 PM 63.9 °F 61.7 °F 93% 29.91 in 10.0 mi SSE 5.8 mph - N/A   Overcast
10:35 PM 63.9 °F 61.7 °F 93% 29.91 in 10.0 mi South 3.5 mph - N/A   Overcast
10:56 PM 63.7 °F 61.5 °F 93% 29.92 in 10.0 mi SSE 3.5 mph - N/A   Overcast
11:16 PM 63.0 °F 61.7 °F 96% 29.91 in 7.0 mi SE 3.5 mph - N/A   Overcast
11:35 PM 63.5 °F 61.7 °F 94% 29.91 in 10.0 mi South 3.5 mph - N/A   Overcast
11:56 PM 63.5 °F 61.5 °F 93% 29.92 in 10.0 mi Calm Calm - N/A   Overcast